Lid_Strength_Index
-1 -1 -1 2 8 7 9 9 6 7 7 5 4 5 5 5 7 9 1 0 0 -0 -1 -1 -1 -1 -1 -1 -1 -1 -1 -1 -1 -1 -1 -1 -1 -1 -1 -1 -1 -1 -1 -1 -1 -1 -1 -1 -1
-1 0 1 4 9 10 9 7 8 6 5 4 4 4 5 6 3 3 2 0 -0 -0 -1 -1 -1 -1 -1 -1 -1 -1 -1 -1 -1 -1 -1 -1 -1 -1 -1 -1 -1 -1 -1 -1 -1 -1 -1 -1 -1
-0 1 4 6 7 9 9 7 6 5 4 4 5 4 4 6 3 2 1 0 -0 -0 -1 -1 -1 -1 -1 -1 -1 -1 -1 -1 -1 -1 -1 -1 -1 -1 -1 -1 -1 -1 -1 -1 -1 -1 -1 -1 -1
1 2 3 7 9 7 7 6 5 5 4 4 4 6 4 2 3 1 0 -0 0 -0 -1 -1 -1 -1 -1 -1 -1 -1 -1 -1 -1 -1 -1 -1 -1 -1 -1 -1 -1 -1 -1 -1 -1 -1 -1 -1 -1
1 3 7 8 8 7 5 5 5 5 5 4 4 5 5 2 1 0 0 0 0 -0 -1 -1 -1 -1 -1 -1 -1 -1 -1 -1 -1 -1 -1 -1 -1 -1 -1 -1 -1 -1 -1 -1 -1 -1 -1 -1 -1
4 4 8 8 8 6 5 4 5 5 5 4 5 4 5 1 1 1 0 0 -0 -0 -0 -1 -1 -1 -1 -1 -1 -1 -1 -1 -1 -1 -1 -1 -1 -1 -1 -1 -1 -1 -1 -1 -1 -1 -1 -1 -1
5 6 8 8 8 7 6 4 5 5 5 5 3 5 4 2 1 1 0 -0 -0 -0 -0 -1 -1 -1 -1 -1 -1 -1 -1 -1 -1 -1 -1 -1 -1 -1 -1 -1 -1 -1 -1 -1 -1 -1 -1 -1 -1
4 5 8 7 8 8 6 5 4 5 5 3 3 5 5 2 1 0 0 0 0 -0 -0 -0 -1 -1 -0 -1 -1 -1 -1 -1 -1 -1 -1 -1 -1 -1 -1 -1 -1 -1 -1 -1 -1 -1 -1 -1 -1
3 7 8 8 8 7 5 6 4 4 4 4 4 4 3 2 1 1 1 1 1 0 1 1 1 -0 -0 -1 -1 -1 -1 -1 -1 -1 -1 -1 -1 -1 -1 -1 -2 -1 -1 -1 -1 -1 -1 -2 -2
5 7 8 6 6 6 5 5 5 5 5 5 4 3 3 2 2 2 2 2 2 1 1 0 1 0 -0 0 -1 -1 -1 -1 -1 -1 -1 -1 -0 -1 -1 -1 -1 -2 -1 -1 -1 -1 -1 -1 -1
5 8 6 6 5 5 5 5 5 5 6 6 6 4 3 2 2 2 2 2 2 1 0 -0 -0 -1 -0 -0 0 1 -1 -1 -1 -1 -1 -1 -1 -0 -1 -0 -1 -1 -1 -1 -1 -1 -1 -1 -0
7 6 5 5 5 6 6 5 6 6 6 5 3 3 3 3 3 2 2 2 1 1 1 1 0 -0 -1 -1 -0 -0 1 0 0 -1 -1 -1 -0 -0 -0 -0 -0 -0 -1 -0 -0 -0 -1 -0 -1
6 6 6 5 5 5 5 5 5 6 5 4 3 3 3 3 3 3 3 3 3 3 3 2 2 2 1 0 -1 -1 -0 -0 -0 -1 -1 -1 -0 -0 -0 -0 -0 -0 -1 -0 -0 -0 -0 -0 -0
6 6 6 5 5 5 6 5 5 6 5 5 4 4 4 5 5 4 4 4 4 4 4 3 4 3 3 2 2 0 -1 -1 -1 -1 -1 -1 -0 -0 -0 -0 -0 -0 -1 -1 -0 0 0 0 -0
5 7 6 5 5 6 6 7 7 5 5 5 5 4 6 6 5 5 5 5 4 4 4 4 3 3 3 3 3 1 1 -0 -1 -1 -1 -1 -1 -0 0 0 0 -0 -1 -0 -0 -0 -0 0 0
7 6 9 6 6 6 7 10 5 4 6 6 5 5 6 6 5 4 4 4 4 4 4 4 3 3 3 3 2 2 2 1 0 -0 -1 -1 -1 -1 -0 0 0 -0 -0 -0 -0 0 1 1 1
8 10 10 9 6 8 8 10 7 5 6 6 6 6 6 5 5 4 4 4 4 4 4 4 3 4 3 3 2 2 2 2 1 1 -0 -1 -1 -1 -0 -0 -0 -0 0 0 0 1 1 1 1
11 11 10 10 8 8 9 9 7 7 7 7 7 6 6 6 6 5 5 5 5 4 4 3 4 4 3 3 3 2 2 2 1 1 1 1 0 -0 -0 -0 -0 -0 0 1 1 1 1 1 1
10 11 11 9 9 10 10 10 9 8 8 8 8 8 7 7 6 6 5 5 5 5 4 3 3 3 3 3 3 3 3 3 2 1 1 0 0 0 -0 -0 0 0 1 1 1 1 2 2 1
10 11 11 10 9 10 11 11 9 9 9 9 8 8 8 8 7 6 6 5 5 5 4 4 3 3 2 2 2 2 2 1 1 0 0 0 0 -0 0 -0 0 0 1 1 1 1 2 2 1
11 12 12 13 11 10 11 12 11 10 9 8 8 8 7 7 7 6 5 5 4 4 3 3 2 2 2 2 2 1 1 1 2 1 0 -0 -0 -1 -0 -0 0 0 1 1 1 1 2 3 2
12 10 12 12 13 15 11 16 11 10 10 9 9 8 8 7 6 6 4 4 3 2 1 1 1 1 1 1 1 2 2 3 2 2 1 1 0 0 -0 -0 -0 0 1 1 1 1 1 2 3
12 11 12 12 13 13 12 14 11 9 10 10 9 9 8 7 5 5 4 3 2 1 1 0 0 0 0 0 0 1 1 1 1 1 1 0 -0 -0 -0 -0 -0 0 0 0 1 1 1 1 2
10 12 12 11 12 15 13 14 14 12 12 10 8 8 7 5 4 3 3 3 2 1 1 0 0 0 -0 -0 -0 0 1 1 1 1 1 1 0 0 -0 -0 -0 0 0 1 1 1 1 1 1
12 13 16 15 15 15 12 15 13 11 9 9 10 8 6 5 4 4 3 3 2 1 1 1 1 1 0 0 0 0 0 1 1 1 1 2 1 1 0 0 0 0 0 0 0 1 1 1 2
13 14 16 21 19 17 14 16 12 8 8 7 7 6 5 4 4 3 2 2 2 1 1 1 1 1 0 0 0 0 0 0 0 0 1 1 1 1 -0 0 0 0 0 0 0 1 1 1 1
13 14 12 16 15 17 15 12 10 8 8 7 7 5 5 4 3 3 2 2 2 2 1 1 1 1 1 1 0 0 0 0 1 1 1 1 1 1 1 1 1 0 1 0 1 1 1 1 1
13 12 16 14 19 20 17 15 12 9 8 7 7 6 5 4 3 3 2 2 2 1 1 1 1 1 1 0 0 0 1 0 0 1 2 2 2 1 1 1 1 1 1 1 1 1 1 1 1
14 14 14 14 15 17 17 16 8 8 7 7 6 5 5 4 4 3 2 2 2 1 1 1 1 2 2 1 0 0 1 0 1 1 2 2 2 2 2 2 2 2 1 1 1 1 1 2 2
13 14 14 17 18 15 14 15 7 7 6 6 6 5 4 4 4 3 2 2 2 2 2 2 2 2 2 2 1 1 1 1 2 2 2 3 3 3 3 3 3 3 2 2 2 2 2 2 2